Belleville, IL

1:53 PM CDT on May 28, 2017 (GMT -0500)
Scott Air Force Base-Midamerica

Weather History for KBLV - December, 2012

Change the Weather History Date:

Saturday, December 8, 2012

  Actual Average Record
Temperature  
Mean Temperature 46 °F -  
Max Temperature 50 °F 46 °F 68 °F (1966)
Min Temperature 42 °F 28 °F 9 °F (2006)
Degree Days  
Heating Degree Days 19    
Moisture  
Dew Point 46 °F    
Average Humidity 96    
Maximum Humidity 100    
Minimum Humidity 87    
Precipitation  
Precipitation 0.05 in - - ()
Sea Level Pressure  
Sea Level Pressure 29.94 in    
Wind  
Wind Speed 6 mph (NNW)    
Max Wind Speed 12 mph    
Max Gust Speed -    
Visibility 10 miles    
Events Rain    
Averages and records for this station are not official NWS values.
T = Trace of Precipitation, MM = Missing Value Source: NWS Daily Summary

Daily Weather History Graph

Daily Weather History Graph

Search for Another Location

Airport or City:

Trip Planner

Search our weather history database for the weather conditions in past years. The results will help you decide how hot, cold, wet, or windy it might be!

Date:

Astronomy

Dec. 08, 2012 Rise Set
Actual Time 7:04 AM CST 4:38 PM CST
Civil Twilight 6:35 AM CST 5:07 PM CST
Nautical Twilight 6:02 AM CST 5:40 PM CST
Astronomical Twilight 5:29 AM CST 6:13 PM CST
Moon 1:32 AM CST (12/8) 1:05 PM CST (12/8)
Length of Visible Light 10h 32m
Length of Day
9h 33m
Waning Crescent, 28% of the Moon is Illuminated
Dec 8
Waning Crescent
Dec 13
New
Dec 19
First Quarter
Dec 28
Full
Jan 4
Last Quarter

Hourly Weather History & Observations

Time (CST) Temp. Windchill Dew Point Humidity Pressure Visibility Wind Dir Wind Speed Gust Speed Precip Events Conditions
12:14 AM 50.0 °F - 48.2 °F 94% 29.87 in 4.0 mi WNW 4.6 mph - N/A Rain Light Rain
12:36 AM 50.0 °F - 50.0 °F 100% 29.87 in 5.0 mi WNW 5.8 mph - N/A   Light Drizzle
12:39 AM 50.0 °F - 50.0 °F 100% 29.87 in 5.0 mi WNW 5.8 mph - N/A   Overcast
12:54 AM 50.0 °F - 50.0 °F 100% 29.87 in 5.0 mi NW 5.8 mph - N/A   Overcast
12:55 AM 49.3 °F - 49.3 °F 100% 29.87 in 5.0 mi NW 5.8 mph - 0.03 in   Overcast
1:55 AM 48.9 °F - 48.9 °F 100% 29.88 in 10.0 mi NW 8.1 mph - N/A   Overcast
2:03 AM 48.2 °F - 48.2 °F 100% 29.87 in 10.0 mi NW 6.9 mph - N/A   Overcast
2:19 AM 48.2 °F - 48.2 °F 100% 29.87 in 10.0 mi NNW 4.6 mph - N/A   Overcast
2:40 AM 48.2 °F - 48.2 °F 100% 29.87 in 10.0 mi NW 4.6 mph - N/A   Overcast
2:55 AM 48.4 °F - 48.2 °F 99% 29.87 in 10.0 mi Calm Calm - N/A   Overcast
3:01 AM 48.2 °F - 48.2 °F 100% 29.87 in 10.0 mi Calm Calm - N/A Rain Light Rain
3:06 AM 48.2 °F - 48.2 °F 100% 29.87 in 8.0 mi Calm Calm - N/A Rain Light Rain
3:20 AM 48.2 °F - 48.2 °F 100% 29.87 in 10.0 mi NW 3.5 mph - N/A Rain Light Rain
3:26 AM 48.2 °F - 48.2 °F 100% 29.87 in 10.0 mi NW 4.6 mph - N/A   Overcast
3:41 AM 48.2 °F - 48.2 °F 100% 29.87 in 10.0 mi Calm Calm - N/A   Overcast
3:55 AM 48.2 °F - 48.2 °F 100% 29.87 in 10.0 mi WNW 3.5 mph - 0.01 in   Overcast
4:15 AM 48.2 °F - 48.2 °F 100% 29.88 in 10.0 mi NW 5.8 mph - N/A   Overcast
4:51 AM 48.2 °F - 48.2 °F 100% 29.90 in 10.0 mi WNW 5.8 mph - N/A   Overcast
4:55 AM 47.8 °F - 47.8 °F 100% 29.90 in 10.0 mi WNW 5.8 mph - N/A   Overcast
5:11 AM 48.2 °F - 48.2 °F 100% 29.91 in 10.0 mi NW 9.2 mph - N/A Rain Light Rain
5:23 AM 48.2 °F - 48.2 °F 100% 29.91 in 10.0 mi NW 9.2 mph - N/A   Overcast
5:55 AM 47.7 °F - 47.5 °F 99% 29.91 in 10.0 mi NW 8.1 mph - 0.00 in   Overcast
6:16 AM 48.2 °F - 46.4 °F 93% 29.93 in 10.0 mi NW 5.8 mph - N/A Rain Light Rain
6:24 AM 48.2 °F - 46.4 °F 93% 29.93 in 9.0 mi NW 5.8 mph - N/A Rain Light Rain
6:42 AM 48.2 °F - 46.4 °F 93% 29.94 in 10.0 mi NW 9.2 mph - N/A   Overcast
6:53 AM 48.2 °F - 46.4 °F 93% 29.94 in 10.0 mi NNW 11.5 mph - N/A   Overcast
6:55 AM 47.5 °F - 47.1 °F 99% 29.94 in 10.0 mi NNW 10.4 mph - 0.00 in   Overcast
7:24 AM 46.4 °F 42.4 °F 46.4 °F 100% 29.95 in 10.0 mi NW 8.1 mph - N/A   Overcast
7:41 AM 46.4 °F 41.5 °F 46.4 °F 100% 29.95 in 10.0 mi NW 10.4 mph - N/A   Overcast
7:55 AM 46.4 °F 41.9 °F 46.0 °F 99% 29.95 in 10.0 mi NW 9.2 mph - N/A   Overcast
8:11 AM 46.4 °F 41.9 °F 46.4 °F 100% 29.96 in 10.0 mi NW 9.2 mph - N/A   Overcast
8:21 AM 46.4 °F 42.4 °F 46.4 °F 100% 29.96 in 10.0 mi NW 8.1 mph - N/A   Overcast
8:55 AM 46.4 °F 43.5 °F 46.0 °F 99% 29.97 in 10.0 mi NNW 5.8 mph - 0.01 in   Overcast
9:14 AM 46.4 °F 42.9 °F 46.4 °F 100% 29.99 in 10.0 mi NW 6.9 mph - N/A   Overcast
9:43 AM 46.4 °F 42.4 °F 46.4 °F 100% 29.99 in 10.0 mi NNW 8.1 mph - N/A   Overcast
9:54 AM 46.4 °F 43.5 °F 46.4 °F 100% 29.99 in 10.0 mi NNW 5.8 mph - N/A   Overcast
9:55 AM 46.6 °F - 46.4 °F 99% 29.99 in 10.0 mi NNW 5.8 mph - N/A   Overcast
9:57 AM 46.4 °F 42.9 °F 46.4 °F 100% 29.99 in 10.0 mi NW 6.9 mph - N/A   Overcast
10:05 AM 46.4 °F 41.9 °F 46.4 °F 100% 29.99 in 10.0 mi NW 9.2 mph - N/A   Overcast
10:13 AM 46.4 °F 41.9 °F 46.4 °F 100% 29.99 in 10.0 mi NNW 9.2 mph - N/A   Overcast
10:22 AM 46.4 °F 42.9 °F 46.4 °F 100% 29.99 in 10.0 mi North 6.9 mph - N/A   Overcast
10:35 AM 46.4 °F 42.4 °F 46.4 °F 100% 29.99 in 10.0 mi NNW 8.1 mph - N/A   Overcast
10:55 AM 47.1 °F - 45.3 °F 93% 29.99 in 10.0 mi North 8.1 mph - N/A   Overcast
11:55 AM 46.8 °F - 44.4 °F 92% 29.99 in 10.0 mi North 6.9 mph - N/A   Overcast
12:55 PM 47.5 °F - 44.1 °F 88% 29.97 in 10.0 mi North 8.1 mph - N/A   Overcast
1:14 PM 48.2 °F - 44.6 °F 87% 29.98 in 10.0 mi NNW 5.8 mph - N/A   Overcast
1:41 PM 46.4 °F 42.9 °F 42.8 °F 87% 29.98 in 10.0 mi North 6.9 mph - N/A   Overcast
1:54 PM 46.4 °F 42.9 °F 42.8 °F 87% 29.97 in 10.0 mi North 6.9 mph - N/A   Overcast
1:55 PM 46.6 °F - 43.3 °F 88% 29.98 in 10.0 mi North 6.9 mph - N/A   Overcast
2:00 PM 46.4 °F 42.9 °F 44.6 °F 93% 29.97 in 10.0 mi North 6.9 mph - N/A   Overcast
2:28 PM 46.4 °F 42.4 °F 44.6 °F 93% 29.97 in 10.0 mi North 8.1 mph - N/A   Overcast
2:55 PM 45.9 °F 40.8 °F 43.3 °F 91% 29.98 in 10.0 mi NNE 10.4 mph - N/A   Overcast
3:55 PM 45.5 °F 43.2 °F 42.3 °F 88% 29.99 in 10.0 mi Variable 4.6 mph - N/A   Overcast
4:55 PM 45.1 °F 42.0 °F 42.4 °F 90% 29.99 in 10.0 mi NNE 5.8 mph - N/A   Overcast
5:55 PM 45.1 °F 40.8 °F 42.6 °F 91% 29.99 in 10.0 mi NNE 8.1 mph - N/A   Overcast
6:55 PM 44.2 °F 39.7 °F 42.4 °F 93% 30.00 in 10.0 mi NNE 8.1 mph - N/A   Overcast
7:55 PM 43.5 °F 40.1 °F 41.2 °F 91% 30.00 in 10.0 mi NE 5.8 mph - N/A   Overcast
8:55 PM 43.5 °F 38.9 °F 41.4 °F 92% 29.97 in 10.0 mi ENE 8.1 mph - N/A   Overcast
9:03 PM 42.8 °F 38.6 °F 41.0 °F 93% 29.97 in 10.0 mi ENE 6.9 mph - N/A   Overcast
9:19 PM 42.8 °F 39.3 °F 42.8 °F 100% 29.97 in 10.0 mi ENE 5.8 mph - N/A   Overcast
9:55 PM 43.7 °F 40.3 °F 42.4 °F 95% 29.97 in 10.0 mi ENE 5.8 mph - N/A   Overcast
10:55 PM 43.7 °F 41.1 °F 41.4 °F 91% 29.98 in 10.0 mi ENE 4.6 mph - N/A   Overcast
11:55 PM 43.7 °F 39.7 °F 42.1 °F 94% 29.97 in 10.0 mi East 6.9 mph - N/A   Overcast